Valentine, NE

4:56 PM CDT on April 25, 2017 (GMT -0500)
Miller Field

Weather History for KVTN - February, 2014

Change the Weather History Date:

Sunday, February 9, 2014

  Actual Average Record
Temperature  
Mean Temperature 2 °F 26 °F  
Max Temperature 12 °F 38 °F 70 °F (1996)
Min Temperature -8 °F 13 °F -31 °F (1994)
Degree Days  
Heating Degree Days 63 39  
Month to date heating degree days 536 358  
Since 1 July heating degree days 4736 4536  
Cooling Degree Days 0 0  
Month to date cooling degree days 0 0  
Year to date cooling degree days 0 0  
Moisture  
Dew Point -1 °F    
Average Humidity 75    
Maximum Humidity 87    
Minimum Humidity 63    
Precipitation  
Precipitation 0.02 in 0.02 in 0.62 in (1897)
Month to date precipitation 0.18 0.12  
Year to date precipitation 0.22 0.38  
Snow  
Snow 0.50 in 0.20 in 6.40 in (1944)
Month to date snowfall 2.8 1.5  
Since 1 July snowfall 22.3 18.0  
Snow Depth T in    
Sea Level Pressure  
Sea Level Pressure 30.36 in    
Wind  
Wind Speed 5 mph (NNW)    
Max Wind Speed 12 mph    
Max Gust Speed 14 mph    
Visibility 7 miles    
Events Snow    
T = Trace of Precipitation, MM = Missing Value Source: NWS Daily Summary

Daily Weather History Graph

Daily Weather History Graph

Search for Another Location

Airport or City:

Trip Planner

Search our weather history database for the weather conditions in past years. The results will help you decide how hot, cold, wet, or windy it might be!

Date:

Astronomy

Feb. 09, 2014 Rise Set
Actual Time 7:47 AM CST 6:05 PM CST
Civil Twilight 7:18 AM CST 6:35 PM CST
Nautical Twilight 6:44 AM CST 7:08 PM CST
Astronomical Twilight 6:11 AM CST 7:41 PM CST
Moon 1:44 PM CST (2/9) 3:56 AM CST (2/9)
Length of Visible Light 11h 17m
Length of Day
10h 18m
Waxing Gibbous, 77% of the Moon is Illuminated
Feb 9
Waxing Gibbous
Feb 14
Full
Feb 22
Last Quarter
Mar 1
New
Mar 8
First Quarter

Hourly Weather History & Observations

Time (CST) Temp. Windchill Dew Point Humidity Pressure Visibility Wind Dir Wind Speed Gust Speed Precip Events Conditions
12:52 AM 10.9 °F 0.2 °F 3.0 °F 70% 30.36 in 10.0 mi NNW 6.9 mph - N/A   Overcast
1:52 AM 10.0 °F -1.9 °F 3.0 °F 73% 30.35 in 10.0 mi North 8.1 mph - N/A   Overcast
2:52 AM 10.0 °F 3.6 °F 1.9 °F 70% 30.35 in 10.0 mi North 3.5 mph - N/A   Overcast
3:52 AM 9.0 °F -2.2 °F 3.0 °F 77% 30.35 in 10.0 mi NNW 6.9 mph - N/A   Overcast
4:15 AM 8.6 °F -3.7 °F 1.4 °F 73% 30.21 in 10.0 mi North 8.1 mph - N/A   Overcast
4:41 AM 8.6 °F -2.6 °F 1.4 °F 73% 30.21 in 10.0 mi North 6.9 mph - N/A   Mostly Cloudy
4:52 AM 8.1 °F -2.0 °F 1.9 °F 76% 30.36 in 10.0 mi North 5.8 mph - N/A   Mostly Cloudy
5:05 AM 8.6 °F -2.6 °F 1.4 °F 73% 30.22 in 10.0 mi North 6.9 mph - N/A   Mostly Cloudy
5:52 AM 8.1 °F -3.2 °F 1.9 °F 76% 30.37 in 4.0 mi North 6.9 mph - 0.00 in Snow Light Snow
6:04 AM 6.8 °F -7.8 °F 1.4 °F 79% 30.22 in 2.5 mi NNW 10.4 mph - 0.00 in Snow Light Snow
6:11 AM 6.8 °F -7.8 °F 1.4 °F 79% 30.22 in 3.0 mi NNW 10.4 mph - 0.00 in Snow Light Snow
6:52 AM 7.0 °F -3.3 °F 1.0 °F 77% 30.38 in 3.0 mi NNW 5.8 mph - 0.00 in Snow Light Snow
7:52 AM 6.1 °F -6.8 °F -0.0 °F 76% 30.40 in 5.0 mi NNW 8.1 mph - 0.00 in Snow Light Snow
8:27 AM 6.8 °F -2.0 °F -0.4 °F 72% 30.25 in 2.5 mi North 4.6 mph - 0.00 in Snow Light Snow
8:52 AM 6.1 °F -4.3 °F -0.0 °F 76% 30.43 in 1.8 mi NNW 5.8 mph - 0.01 in Snow Light Snow
9:03 AM 6.8 °F -5.9 °F -0.4 °F 72% 30.26 in 1.5 mi North 8.1 mph - 0.00 in Snow Light Snow
9:33 AM 6.8 °F -5.9 °F -0.4 °F 72% 30.26 in 2.0 mi NNE 8.1 mph - 0.01 in Snow Light Snow
9:52 AM 6.1 °F -4.3 °F -0.9 °F 73% 30.44 in 2.5 mi NNW 5.8 mph - 0.01 in Snow Light Snow
10:31 AM 6.8 °F -2.0 °F -0.4 °F 72% 30.29 in 4.0 mi NNW 4.6 mph - 0.00 in   Haze
10:52 AM 8.1 °F 1.4 °F -0.9 °F 67% 30.45 in 5.0 mi NE 3.5 mph - 0.00 in   Haze
11:28 AM 8.6 °F -2.6 °F -0.4 °F 67% 30.29 in 2.5 mi NE 6.9 mph - 0.00 in Snow Light Snow
11:40 AM 8.6 °F 0.1 °F -0.4 °F 67% 30.29 in 2.5 mi NNE 4.6 mph - 0.00 in Snow Light Snow
11:49 AM 8.6 °F 2.0 °F -0.4 °F 67% 30.29 in 3.0 mi North 3.5 mph - 0.00 in Snow Light Snow
11:52 AM 9.0 °F 2.4 °F -0.0 °F 67% 30.46 in 3.0 mi NNE 3.5 mph - 0.00 in Snow Light Snow
12:32 PM 8.6 °F - -0.4 °F 67% 30.29 in 2.5 mi Calm Calm - 0.00 in Snow Light Snow
12:50 PM 10.4 °F 2.2 °F 1.4 °F 67% 30.26 in 4.0 mi NNW 4.6 mph - 0.00 in   Haze
12:52 PM 10.0 °F - -0.0 °F 64% 30.42 in 4.0 mi Calm Calm - 0.00 in   Haze
1:52 PM 10.9 °F 0.2 °F -0.0 °F 61% 30.40 in 9.0 mi North 6.9 mph - N/A   Overcast
2:35 PM 10.4 °F -0.4 °F 1.4 °F 67% 30.23 in 10.0 mi NW 6.9 mph - 0.00 in   Overcast
2:52 PM 10.9 °F 0.2 °F 1.0 °F 64% 30.41 in 10.0 mi NW 6.9 mph - 0.00 in   Overcast
3:52 PM 10.9 °F 1.4 °F -0.0 °F 61% 30.41 in 10.0 mi North 5.8 mph - N/A   Overcast
4:34 PM 10.4 °F 0.8 °F -0.4 °F 62% 30.26 in 10.0 mi NNW 5.8 mph - N/A   Scattered Clouds
4:52 PM 10.0 °F 0.4 °F -0.9 °F 61% 30.43 in 10.0 mi NNW 5.8 mph - N/A   Clear
5:52 PM 8.1 °F -0.5 °F -0.9 °F 67% 30.44 in 10.0 mi NNW 4.6 mph - N/A   Partly Cloudy
6:52 PM 5.0 °F -4.1 °F -2.0 °F 73% 30.48 in 10.0 mi North 4.6 mph - N/A   Mostly Cloudy
7:18 PM 3.2 °F - -2.2 °F 78% 30.31 in 10.0 mi Calm Calm - N/A   Partly Cloudy
7:52 PM 1.0 °F - -2.9 °F 83% 30.50 in 9.0 mi Calm Calm - N/A   Clear
8:52 PM -5.1 °F -13.6 °F -9.9 °F 80% 30.52 in 9.0 mi NW 3.5 mph - N/A   Clear
9:52 PM -2.0 °F - -7.1 °F 79% 30.52 in 9.0 mi Calm Calm - N/A   Overcast
10:52 PM -4.0 °F - -9.0 °F 79% 30.51 in 9.0 mi Calm Calm - N/A   Clear
11:52 PM -7.1 °F -15.9 °F -11.0 °F 83% 30.51 in 8.0 mi WNW 3.5 mph - N/A   Clear